Year,Month,Day,Hour,Minute,Value (Times are PST for temperature in C)
2015,02,16,00,00,3.20
2015,02,16,00,01,3.20
2015,02,16,00,02,3.20
2015,02,16,00,03,3.20
2015,02,16,00,04,3.20
2015,02,16,00,05,3.20
2015,02,16,00,06,3.20
2015,02,16,00,07,3.30
2015,02,16,00,08,3.30
2015,02,16,00,09,3.30
2015,02,16,00,10,3.30
2015,02,16,00,11,3.30
2015,02,16,00,12,3.30
2015,02,16,00,13,3.20
2015,02,16,00,14,3.20
2015,02,16,00,15,3.20
2015,02,16,00,16,3.20
2015,02,16,00,17,3.20
2015,02,16,00,18,3.20
2015,02,16,00,19,3.20
2015,02,16,00,20,3.10
2015,02,16,00,21,3.10
2015,02,16,00,22,3.10
2015,02,16,00,23,3.10
2015,02,16,00,24,3.10
2015,02,16,00,25,3.00
2015,02,16,00,26,3.00
2015,02,16,00,27,3.00
2015,02,16,00,28,3.00
2015,02,16,00,29,2.90
2015,02,16,00,30,2.90
2015,02,16,00,31,2.90
2015,02,16,00,32,2.90
2015,02,16,00,33,2.90
2015,02,16,00,34,2.90
2015,02,16,00,35,2.80
2015,02,16,00,36,2.80
2015,02,16,00,37,2.80
2015,02,16,00,38,2.80
2015,02,16,00,39,2.70
2015,02,16,00,40,2.70
2015,02,16,00,41,2.70
2015,02,16,00,42,2.70
2015,02,16,00,43,2.70
2015,02,16,00,44,2.70
2015,02,16,00,45,2.70
2015,02,16,00,46,2.80
2015,02,16,00,47,2.70
2015,02,16,00,48,2.70
2015,02,16,00,49,2.70
2015,02,16,00,50,2.70
2015,02,16,00,51,2.70
2015,02,16,00,52,2.70
2015,02,16,00,53,2.70
2015,02,16,00,54,2.70
2015,02,16,00,55,2.70
2015,02,16,00,56,2.70
2015,02,16,00,57,2.70
2015,02,16,00,58,2.70
2015,02,16,00,59,2.70
2015,02,16,01,00,2.80
2015,02,16,01,01,2.80
2015,02,16,01,02,2.70
2015,02,16,01,03,2.70
2015,02,16,01,04,2.70
2015,02,16,01,05,2.70
2015,02,16,01,06,2.70
2015,02,16,01,07,2.70
2015,02,16,01,08,2.60
2015,02,16,01,09,2.60
2015,02,16,01,10,2.60
2015,02,16,01,11,2.60
2015,02,16,01,12,2.60
2015,02,16,01,13,2.50
2015,02,16,01,14,2.50
2015,02,16,01,15,2.50
2015,02,16,01,16,2.40
2015,02,16,01,17,2.40
2015,02,16,01,18,2.40
2015,02,16,01,19,2.40
2015,02,16,01,20,2.40
2015,02,16,01,21,2.30
2015,02,16,01,22,2.30
2015,02,16,01,23,2.30
2015,02,16,01,24,2.30
2015,02,16,01,25,2.30
2015,02,16,01,26,2.30
2015,02,16,01,27,2.20
2015,02,16,01,28,2.20
2015,02,16,01,29,2.20
2015,02,16,01,30,2.20
2015,02,16,01,31,2.30
2015,02,16,01,32,2.30
2015,02,16,01,33,2.30
2015,02,16,01,34,2.30
2015,02,16,01,35,2.30
2015,02,16,01,36,2.30
2015,02,16,01,37,2.40
2015,02,16,01,38,2.40
2015,02,16,01,39,2.40
2015,02,16,01,40,2.30
2015,02,16,01,41,2.30
2015,02,16,01,42,2.40
2015,02,16,01,43,2.40
2015,02,16,01,44,2.40
2015,02,16,01,45,2.40
2015,02,16,01,46,2.40
2015,02,16,01,47,2.30
2015,02,16,01,48,2.30
2015,02,16,01,49,2.30
2015,02,16,01,50,2.20
2015,02,16,01,51,2.20
2015,02,16,01,52,2.20
2015,02,16,01,53,2.20
2015,02,16,01,54,2.20
2015,02,16,01,55,2.20
2015,02,16,01,56,2.10
2015,02,16,01,57,2.10
2015,02,16,01,58,2.10
2015,02,16,01,59,2.10
2015,02,16,02,00,2.20
2015,02,16,02,01,2.20
2015,02,16,02,02,2.20
2015,02,16,02,03,2.20
2015,02,16,02,04,2.10
2015,02,16,02,05,2.10
2015,02,16,02,06,2.10
2015,02,16,02,07,2.10
2015,02,16,02,08,2.10
2015,02,16,02,09,2.00
2015,02,16,02,10,2.00
2015,02,16,02,11,2.00
2015,02,16,02,12,2.00
2015,02,16,02,13,1.90
2015,02,16,02,14,1.90
2015,02,16,02,15,1.90
2015,02,16,02,16,1.90
2015,02,16,02,17,1.90
2015,02,16,02,18,1.90
2015,02,16,02,19,2.00
2015,02,16,02,20,2.00
2015,02,16,02,21,2.10
2015,02,16,02,22,2.10
2015,02,16,02,23,2.10
2015,02,16,02,24,2.10
2015,02,16,02,25,2.00
2015,02,16,02,26,2.00
2015,02,16,02,27,2.00
2015,02,16,02,28,2.00
2015,02,16,02,29,2.00
2015,02,16,02,30,2.00
2015,02,16,02,31,2.00
2015,02,16,02,32,2.00
2015,02,16,02,33,2.00
2015,02,16,02,34,1.90
2015,02,16,02,35,1.90
2015,02,16,02,36,1.90
2015,02,16,02,37,1.90
2015,02,16,02,38,1.90
2015,02,16,02,39,1.90
2015,02,16,02,40,1.90
2015,02,16,02,41,1.90
2015,02,16,02,42,1.90
2015,02,16,02,43,1.90
2015,02,16,02,44,1.90
2015,02,16,02,45,1.90
2015,02,16,02,46,1.90
2015,02,16,02,47,1.90
2015,02,16,02,48,1.90
2015,02,16,02,49,1.90
2015,02,16,02,50,1.80
2015,02,16,02,51,1.80
2015,02,16,02,52,1.90
2015,02,16,02,53,1.90
2015,02,16,02,54,1.90
2015,02,16,02,55,1.90
2015,02,16,02,56,1.90
2015,02,16,02,57,1.90
2015,02,16,02,58,1.90
2015,02,16,02,59,1.90
2015,02,16,03,00,1.90
2015,02,16,03,01,1.90
2015,02,16,03,02,1.90
2015,02,16,03,03,1.80
2015,02,16,03,04,1.80
2015,02,16,03,05,1.80
2015,02,16,03,06,1.90
2015,02,16,03,07,1.90
2015,02,16,03,08,1.90
2015,02,16,03,09,2.00
2015,02,16,03,10,2.00
2015,02,16,03,11,2.00
2015,02,16,03,12,2.00
2015,02,16,03,13,2.00
2015,02,16,03,14,2.00
2015,02,16,03,15,2.00
2015,02,16,03,16,2.00
2015,02,16,03,17,2.00
2015,02,16,03,18,2.00
2015,02,16,03,19,1.90
2015,02,16,03,20,1.90
2015,02,16,03,21,1.90
2015,02,16,03,22,1.80
2015,02,16,03,23,1.80
2015,02,16,03,24,1.80
2015,02,16,03,25,1.70
2015,02,16,03,26,1.70
2015,02,16,03,27,1.70
2015,02,16,03,28,1.60
2015,02,16,03,29,1.60
2015,02,16,03,30,1.60
2015,02,16,03,31,1.60
2015,02,16,03,32,1.70
2015,02,16,03,33,1.70
2015,02,16,03,34,1.70
2015,02,16,03,35,1.70
2015,02,16,03,36,1.70
2015,02,16,03,37,1.70
2015,02,16,03,38,1.70
2015,02,16,03,39,1.70
2015,02,16,03,40,1.70
2015,02,16,03,41,1.70
2015,02,16,03,42,1.70
2015,02,16,03,43,1.70
2015,02,16,03,44,1.70
2015,02,16,03,45,1.70
2015,02,16,03,46,1.70
2015,02,16,03,47,1.70
2015,02,16,03,48,1.60
2015,02,16,03,49,1.60
2015,02,16,03,50,1.60
2015,02,16,03,51,1.60
2015,02,16,03,52,1.50
2015,02,16,03,53,1.50
2015,02,16,03,54,1.50
2015,02,16,03,55,1.50
2015,02,16,03,56,1.50
2015,02,16,03,57,1.50
2015,02,16,03,58,1.50
2015,02,16,03,59,1.40
2015,02,16,04,00,1.40
2015,02,16,04,01,1.40
2015,02,16,04,02,1.40
2015,02,16,04,03,1.40
2015,02,16,04,04,1.30
2015,02,16,04,05,1.30
2015,02,16,04,06,1.30
2015,02,16,04,07,1.30
2015,02,16,04,08,1.30
2015,02,16,04,09,1.30
2015,02,16,04,10,1.30
2015,02,16,04,11,1.30
2015,02,16,04,12,1.30
2015,02,16,04,13,1.30
2015,02,16,04,14,1.30
2015,02,16,04,15,1.30
2015,02,16,04,16,1.30
2015,02,16,04,17,1.30
2015,02,16,04,18,1.30
2015,02,16,04,19,1.30
2015,02,16,04,20,1.30
2015,02,16,04,21,1.30
2015,02,16,04,22,1.30
2015,02,16,04,23,1.30
2015,02,16,04,24,1.30
2015,02,16,04,25,1.30
2015,02,16,04,26,1.30
2015,02,16,04,27,1.30
2015,02,16,04,28,1.30
2015,02,16,04,29,1.30
2015,02,16,04,30,1.30
2015,02,16,04,31,1.30
2015,02,16,04,32,1.30
2015,02,16,04,33,1.40
2015,02,16,04,34,1.40
2015,02,16,04,35,1.40
2015,02,16,04,36,1.40
2015,02,16,04,37,1.30
2015,02,16,04,38,1.30
2015,02,16,04,39,1.30
2015,02,16,04,40,1.30
2015,02,16,04,41,1.30
2015,02,16,04,42,1.30
2015,02,16,04,43,1.30
2015,02,16,04,44,1.30
2015,02,16,04,45,1.30
2015,02,16,04,46,1.20
2015,02,16,04,47,1.20
2015,02,16,04,48,1.20
2015,02,16,04,49,1.20
2015,02,16,04,50,1.20
2015,02,16,04,51,1.20
2015,02,16,04,52,1.20
2015,02,16,04,53,1.20
2015,02,16,04,54,1.20
2015,02,16,04,55,1.20
2015,02,16,04,56,1.20
2015,02,16,04,57,1.10
2015,02,16,04,58,1.10
2015,02,16,04,59,1.10
2015,02,16,05,00,1.10
2015,02,16,05,01,1.10
2015,02,16,05,02,1.20
2015,02,16,05,03,1.20
2015,02,16,05,04,1.20
2015,02,16,05,05,1.20
2015,02,16,05,06,1.20
2015,02,16,05,07,1.20
2015,02,16,05,08,1.10
2015,02,16,05,09,1.10
2015,02,16,05,10,1.10
2015,02,16,05,11,1.00
2015,02,16,05,12,1.00
2015,02,16,05,13,0.90
2015,02,16,05,14,0.90
2015,02,16,05,15,0.90
2015,02,16,05,16,0.90
2015,02,16,05,17,0.90
2015,02,16,05,18,0.90
2015,02,16,05,19,0.90
2015,02,16,05,20,0.90
2015,02,16,05,21,1.00
2015,02,16,05,22,0.90
2015,02,16,05,23,0.90
2015,02,16,05,24,0.90
2015,02,16,05,25,0.90
2015,02,16,05,26,0.90
2015,02,16,05,27,0.90
2015,02,16,05,28,0.90
2015,02,16,05,29,0.80
2015,02,16,05,30,0.80
2015,02,16,05,31,0.80
2015,02,16,05,32,0.80
2015,02,16,05,33,0.80
2015,02,16,05,34,0.80
2015,02,16,05,35,0.80
2015,02,16,05,36,0.80
2015,02,16,05,37,0.80
2015,02,16,05,38,0.80
2015,02,16,05,39,0.80
2015,02,16,05,40,0.80
2015,02,16,05,41,0.80
2015,02,16,05,42,0.80
2015,02,16,05,43,0.80
2015,02,16,05,44,0.80
2015,02,16,05,45,0.80
2015,02,16,05,46,0.80
2015,02,16,05,47,0.80
2015,02,16,05,48,0.80
2015,02,16,05,49,0.80
2015,02,16,05,50,0.80
2015,02,16,05,51,0.80
2015,02,16,05,52,0.80
2015,02,16,05,53,0.80
2015,02,16,05,54,0.80
2015,02,16,05,55,0.80
2015,02,16,05,56,0.80
2015,02,16,05,57,0.80
2015,02,16,05,58,0.90
2015,02,16,05,59,0.90
2015,02,16,06,00,0.90
2015,02,16,06,01,0.90
2015,02,16,06,02,0.90
2015,02,16,06,03,0.90
2015,02,16,06,04,1.00
2015,02,16,06,05,1.00
2015,02,16,06,06,1.10
2015,02,16,06,07,1.10
2015,02,16,06,08,1.10
2015,02,16,06,09,1.10
2015,02,16,06,10,1.10
2015,02,16,06,11,1.10
2015,02,16,06,12,1.10
2015,02,16,06,13,1.10
2015,02,16,06,14,1.00
2015,02,16,06,15,1.00
2015,02,16,06,16,1.00
2015,02,16,06,17,1.00
2015,02,16,06,18,1.00
2015,02,16,06,19,0.90
2015,02,16,06,20,0.90
2015,02,16,06,21,0.90
2015,02,16,06,22,0.90
2015,02,16,06,23,0.90
2015,02,16,06,24,0.90
2015,02,16,06,25,0.90
2015,02,16,06,26,0.90
2015,02,16,06,27,0.80
2015,02,16,06,28,0.80
2015,02,16,06,29,0.80
2015,02,16,06,30,0.80
2015,02,16,06,31,0.80
2015,02,16,06,32,0.80
2015,02,16,06,33,0.80
2015,02,16,06,34,0.80
2015,02,16,06,35,0.70
2015,02,16,06,36,0.70
2015,02,16,06,37,0.70
2015,02,16,06,38,0.70
2015,02,16,06,39,0.70
2015,02,16,06,40,0.70
2015,02,16,06,41,0.70
2015,02,16,06,42,0.70
2015,02,16,06,43,0.70
2015,02,16,06,44,0.70
2015,02,16,06,45,0.70
2015,02,16,06,46,0.70
2015,02,16,06,47,0.70
2015,02,16,06,48,0.70
2015,02,16,06,49,0.80
2015,02,16,06,50,0.80
2015,02,16,06,51,0.80
2015,02,16,06,52,0.80
2015,02,16,06,53,0.80
2015,02,16,06,54,0.80
2015,02,16,06,55,0.90
2015,02,16,06,56,0.90
2015,02,16,06,57,0.90
2015,02,16,06,58,0.90
2015,02,16,06,59,0.90
2015,02,16,07,00,0.90
2015,02,16,07,01,0.80
2015,02,16,07,02,0.80
2015,02,16,07,03,0.80
2015,02,16,07,04,0.80
2015,02,16,07,05,0.80
2015,02,16,07,06,0.80
2015,02,16,07,07,0.80
2015,02,16,07,08,0.80
2015,02,16,07,09,0.70
2015,02,16,07,10,0.70
2015,02,16,07,11,0.70
2015,02,16,07,12,0.70
2015,02,16,07,13,0.70
2015,02,16,07,14,0.70
2015,02,16,07,15,0.70
2015,02,16,07,16,0.70
2015,02,16,07,17,0.70
2015,02,16,07,18,0.70
2015,02,16,07,19,0.70
2015,02,16,07,20,0.70
2015,02,16,07,21,0.80
2015,02,16,07,22,0.70
2015,02,16,07,23,0.70
2015,02,16,07,24,0.70
2015,02,16,07,25,0.70
2015,02,16,07,26,0.70
2015,02,16,07,27,0.70
2015,02,16,07,28,0.70
2015,02,16,07,29,0.70
2015,02,16,07,30,0.60
2015,02,16,07,31,0.60
2015,02,16,07,32,0.60
2015,02,16,07,33,0.60
2015,02,16,07,34,0.60
2015,02,16,07,35,0.60
2015,02,16,07,36,0.60
2015,02,16,07,37,0.60
2015,02,16,07,38,0.60
2015,02,16,07,39,0.60
2015,02,16,07,40,0.60
2015,02,16,07,41,0.60
2015,02,16,07,42,0.60
2015,02,16,07,43,0.60
2015,02,16,07,44,0.60
2015,02,16,07,45,0.60
2015,02,16,07,46,0.60
2015,02,16,07,47,0.60
2015,02,16,07,48,0.60
2015,02,16,07,49,0.70
2015,02,16,07,50,0.70
2015,02,16,07,51,0.70
2015,02,16,07,52,0.70
2015,02,16,07,53,0.70
2015,02,16,07,54,0.70
2015,02,16,07,55,0.70
2015,02,16,07,56,0.70
2015,02,16,07,57,0.70
2015,02,16,07,58,0.70
2015,02,16,07,59,0.70
2015,02,16,08,00,0.70
2015,02,16,08,01,0.70
2015,02,16,08,02,0.80
2015,02,16,08,03,0.80
2015,02,16,08,04,0.80
2015,02,16,08,05,0.80
2015,02,16,08,06,0.80
2015,02,16,08,07,0.90
2015,02,16,08,08,0.90
2015,02,16,08,09,1.00
2015,02,16,08,10,1.00
2015,02,16,08,11,1.10
2015,02,16,08,12,1.20
2015,02,16,08,13,1.20
2015,02,16,08,14,1.30
2015,02,16,08,15,1.30
2015,02,16,08,16,1.30
2015,02,16,08,17,1.40
2015,02,16,08,18,1.40
2015,02,16,08,19,1.40
2015,02,16,08,20,1.50
2015,02,16,08,21,1.50
2015,02,16,08,22,1.60
2015,02,16,08,23,1.60
2015,02,16,08,24,1.70
2015,02,16,08,25,1.70
2015,02,16,08,26,1.80
2015,02,16,08,27,1.80
2015,02,16,08,28,1.80
2015,02,16,08,29,1.90
2015,02,16,08,30,1.90
2015,02,16,08,31,1.90
2015,02,16,08,32,1.90
2015,02,16,08,33,1.90
2015,02,16,08,34,1.90
2015,02,16,08,35,1.90
2015,02,16,08,36,2.00
2015,02,16,08,37,2.00
2015,02,16,08,38,2.00
2015,02,16,08,39,2.10
2015,02,16,08,40,2.10
2015,02,16,08,41,2.10
2015,02,16,08,42,2.20
2015,02,16,08,43,2.20
2015,02,16,08,44,2.20
2015,02,16,08,45,2.20
2015,02,16,08,46,2.30
2015,02,16,08,47,2.30
2015,02,16,08,48,2.30
2015,02,16,08,49,2.40
2015,02,16,08,50,2.40
2015,02,16,08,51,2.40
2015,02,16,08,52,2.40
2015,02,16,08,53,2.50
2015,02,16,08,54,2.50
2015,02,16,08,55,2.50
2015,02,16,08,56,2.50
2015,02,16,08,57,2.60
2015,02,16,08,58,2.60
2015,02,16,08,59,2.60
2015,02,16,09,00,2.60
2015,02,16,09,01,2.70
2015,02,16,09,02,2.70
2015,02,16,09,03,2.70
2015,02,16,09,04,2.80
2015,02,16,09,05,2.90
2015,02,16,09,06,2.90
2015,02,16,09,07,2.90
2015,02,16,09,08,2.90
2015,02,16,09,09,3.00
2015,02,16,09,10,3.00
2015,02,16,09,11,3.00
2015,02,16,09,12,3.00
2015,02,16,09,13,3.00
2015,02,16,09,14,3.10
2015,02,16,09,15,3.10
2015,02,16,09,16,3.10
2015,02,16,09,17,3.20
2015,02,16,09,18,3.20
2015,02,16,09,19,3.20
2015,02,16,09,20,3.20
2015,02,16,09,21,3.30
2015,02,16,09,22,3.30
2015,02,16,09,23,3.30
2015,02,16,09,24,3.30
2015,02,16,09,25,3.30
2015,02,16,09,26,3.40
2015,02,16,09,27,3.40
2015,02,16,09,28,3.40
2015,02,16,09,29,3.50
2015,02,16,09,30,3.50
2015,02,16,09,31,3.60
2015,02,16,09,32,3.60
2015,02,16,09,33,3.60
2015,02,16,09,34,3.60
2015,02,16,09,35,3.60
2015,02,16,09,36,3.70
2015,02,16,09,37,3.70
2015,02,16,09,38,3.70
2015,02,16,09,39,3.80
2015,02,16,09,40,3.80
2015,02,16,09,41,3.80
2015,02,16,09,42,3.80
2015,02,16,09,43,3.80
2015,02,16,09,44,3.80
2015,02,16,09,45,3.80
2015,02,16,09,46,3.90
2015,02,16,09,47,3.90
2015,02,16,09,48,3.90
2015,02,16,09,49,3.90
2015,02,16,09,50,3.90
2015,02,16,09,51,4.00
2015,02,16,09,52,4.00
2015,02,16,09,53,4.10
2015,02,16,09,54,4.10
2015,02,16,09,55,4.20
2015,02,16,09,56,4.20
2015,02,16,09,57,4.30
2015,02,16,09,58,4.30
2015,02,16,09,59,4.40
2015,02,16,10,00,4.40
2015,02,16,10,01,4.50
2015,02,16,10,02,4.60
2015,02,16,10,03,4.70
2015,02,16,10,04,4.70
2015,02,16,10,05,4.70
2015,02,16,10,06,4.80
2015,02,16,10,07,4.80
2015,02,16,10,08,4.80
2015,02,16,10,09,4.80
2015,02,16,10,10,4.90
2015,02,16,10,11,4.90
2015,02,16,10,12,4.90
2015,02,16,10,13,5.00
2015,02,16,10,14,5.00
2015,02,16,10,15,5.10
2015,02,16,10,16,5.10
2015,02,16,10,17,5.10
2015,02,16,10,18,5.20
2015,02,16,10,19,5.20
2015,02,16,10,20,5.30
2015,02,16,10,21,5.30
2015,02,16,10,22,5.40
2015,02,16,10,23,5.40
2015,02,16,10,24,5.50
2015,02,16,10,25,5.50
2015,02,16,10,26,5.60
2015,02,16,10,27,5.70
2015,02,16,10,28,5.70
2015,02,16,10,29,5.70
2015,02,16,10,30,5.80
2015,02,16,10,31,5.80
2015,02,16,10,32,5.90
2015,02,16,10,33,5.90
2015,02,16,10,34,6.00
2015,02,16,10,35,6.00
2015,02,16,10,36,6.10
2015,02,16,10,37,6.10
2015,02,16,10,38,6.20
2015,02,16,10,39,6.20
2015,02,16,10,40,6.20
2015,02,16,10,41,6.30
2015,02,16,10,42,6.30
2015,02,16,10,43,6.40
2015,02,16,10,44,6.40
2015,02,16,10,45,6.50
2015,02,16,10,46,6.50
2015,02,16,10,47,6.50
2015,02,16,10,48,6.60
2015,02,16,10,49,6.60
2015,02,16,10,50,6.70
2015,02,16,10,51,6.70
2015,02,16,10,52,6.70
2015,02,16,10,53,6.80
2015,02,16,10,54,6.80
2015,02,16,10,55,6.90
2015,02,16,10,56,6.90
2015,02,16,10,57,7.00
2015,02,16,10,58,7.10
2015,02,16,10,59,7.10
2015,02,16,11,00,7.10
2015,02,16,11,01,7.20
2015,02,16,11,02,7.20
2015,02,16,11,03,7.20
2015,02,16,11,04,7.20
2015,02,16,11,05,7.20
2015,02,16,11,06,7.20
2015,02,16,11,07,7.30
2015,02,16,11,08,7.30
2015,02,16,11,09,7.30
2015,02,16,11,10,7.40
2015,02,16,11,11,7.40
2015,02,16,11,12,7.40
2015,02,16,11,13,7.50
2015,02,16,11,14,7.50
2015,02,16,11,15,7.60
2015,02,16,11,16,7.60
2015,02,16,11,17,7.60
2015,02,16,11,18,7.70
2015,02,16,11,19,7.70
2015,02,16,11,20,7.70
2015,02,16,11,21,7.80
2015,02,16,11,22,7.80
2015,02,16,11,23,7.90
2015,02,16,11,24,7.90
2015,02,16,11,25,8.00
2015,02,16,11,26,8.00
2015,02,16,11,27,8.10
2015,02,16,11,28,8.10
2015,02,16,11,29,8.10
2015,02,16,11,30,8.20
2015,02,16,11,31,8.20
2015,02,16,11,32,8.20
2015,02,16,11,33,8.30
2015,02,16,11,34,8.30
2015,02,16,11,35,8.30
2015,02,16,11,36,8.30
2015,02,16,11,37,8.40
2015,02,16,11,38,8.40
2015,02,16,11,39,8.40
2015,02,16,11,40,8.50
2015,02,16,11,41,8.50
2015,02,16,11,42,8.60
2015,02,16,11,43,8.60
2015,02,16,11,44,8.60
2015,02,16,11,45,8.70
2015,02,16,11,46,8.70
2015,02,16,11,47,8.70
2015,02,16,11,48,8.80
2015,02,16,11,49,8.80
2015,02,16,11,50,8.80
2015,02,16,11,51,8.80
2015,02,16,11,52,8.80
2015,02,16,11,53,8.80
2015,02,16,11,54,8.80
2015,02,16,11,55,8.80
2015,02,16,11,56,8.80
2015,02,16,11,57,8.80
2015,02,16,11,58,8.80
2015,02,16,11,59,8.80
2015,02,16,12,00,8.90
2015,02,16,12,01,9.00
2015,02,16,12,02,9.10
2015,02,16,12,03,9.20
2015,02,16,12,04,9.30
2015,02,16,12,05,9.40
2015,02,16,12,06,9.60
2015,02,16,12,07,9.80
2015,02,16,12,08,9.90
2015,02,16,12,09,10.10
2015,02,16,12,10,10.20
2015,02,16,12,11,10.30
2015,02,16,12,12,10.40
2015,02,16,12,13,10.60
2015,02,16,12,14,10.70
2015,02,16,12,15,10.90
2015,02,16,12,16,11.00
2015,02,16,12,17,11.10
2015,02,16,12,18,11.20
2015,02,16,12,19,11.30
2015,02,16,12,20,11.30
2015,02,16,12,21,11.30
2015,02,16,12,22,11.30
2015,02,16,12,23,11.40
2015,02,16,12,24,11.50
2015,02,16,12,25,11.60
2015,02,16,12,26,11.70
2015,02,16,12,27,11.80
2015,02,16,12,28,11.90
2015,02,16,12,29,12.00
2015,02,16,12,30,12.10
2015,02,16,12,31,12.20
2015,02,16,12,32,12.20
2015,02,16,12,33,12.20
2015,02,16,12,34,12.30
2015,02,16,12,35,12.20
2015,02,16,12,36,12.20
2015,02,16,12,37,12.20
2015,02,16,12,38,12.20
2015,02,16,12,39,12.30
2015,02,16,12,40,12.30
2015,02,16,12,41,12.40
2015,02,16,12,42,12.40
2015,02,16,12,43,12.40
2015,02,16,12,44,12.40
2015,02,16,12,45,12.40
2015,02,16,12,46,12.40
2015,02,16,12,47,12.40
2015,02,16,12,48,12.50
2015,02,16,12,49,12.50
2015,02,16,12,50,12.60
2015,02,16,12,51,12.60
2015,02,16,12,52,12.60
2015,02,16,12,53,12.60
2015,02,16,12,54,12.60
2015,02,16,12,55,12.60
2015,02,16,12,56,12.60
2015,02,16,12,57,12.60
2015,02,16,12,58,12.60
2015,02,16,12,59,12.60
2015,02,16,13,00,12.60
2015,02,16,13,01,12.60
2015,02,16,13,02,12.60
2015,02,16,13,03,12.60
2015,02,16,13,04,12.80
2015,02,16,13,05,12.90
2015,02,16,13,06,13.00
2015,02,16,13,07,13.10
2015,02,16,13,08,13.20
2015,02,16,13,09,13.30
2015,02,16,13,10,13.40
2015,02,16,13,11,13.40
2015,02,16,13,12,13.50
2015,02,16,13,13,13.60
2015,02,16,13,14,13.60
2015,02,16,13,15,13.70
2015,02,16,13,16,13.60
2015,02,16,13,17,13.50
2015,02,16,13,18,13.40
2015,02,16,13,19,13.30
2015,02,16,13,20,13.30
2015,02,16,13,21,13.30
2015,02,16,13,22,13.40
2015,02,16,13,23,13.40
2015,02,16,13,24,13.30
2015,02,16,13,25,13.20
2015,02,16,13,26,13.20
2015,02,16,13,27,13.10
2015,02,16,13,28,13.00
2015,02,16,13,29,13.00
2015,02,16,13,30,13.00
2015,02,16,13,31,13.00
2015,02,16,13,32,13.00
2015,02,16,13,33,12.90
2015,02,16,13,34,12.90
2015,02,16,13,35,12.90
2015,02,16,13,36,12.90
2015,02,16,13,37,13.00
2015,02,16,13,38,13.00
2015,02,16,13,39,13.00
2015,02,16,13,40,13.10
2015,02,16,13,41,13.20
2015,02,16,13,42,13.20
2015,02,16,13,43,13.30
2015,02,16,13,44,13.40
2015,02,16,13,45,13.50
2015,02,16,13,46,13.60
2015,02,16,13,47,13.50
2015,02,16,13,48,13.40
2015,02,16,13,49,13.30
2015,02,16,13,50,13.30
2015,02,16,13,51,13.30
2015,02,16,13,52,13.40
2015,02,16,13,53,13.40
2015,02,16,13,54,13.50
2015,02,16,13,55,13.60
2015,02,16,13,56,13.60
2015,02,16,13,57,13.70
2015,02,16,13,58,13.70
2015,02,16,13,59,13.70
2015,02,16,14,00,13.70
2015,02,16,14,01,13.60
2015,02,16,14,02,13.50
2015,02,16,14,03,13.40
2015,02,16,14,04,13.40
2015,02,16,14,05,13.30
2015,02,16,14,06,13.20
2015,02,16,14,07,13.10
2015,02,16,14,08,13.10
2015,02,16,14,09,13.10
2015,02,16,14,10,13.10
2015,02,16,14,11,13.20
2015,02,16,14,12,13.20
2015,02,16,14,13,13.20
2015,02,16,14,14,13.20
2015,02,16,14,15,13.20
2015,02,16,14,16,13.20
2015,02,16,14,17,13.10
2015,02,16,14,18,13.00
2015,02,16,14,19,13.00
2015,02,16,14,20,13.00
2015,02,16,14,21,13.00
2015,02,16,14,22,13.00
2015,02,16,14,23,13.00
2015,02,16,14,24,13.00
2015,02,16,14,25,13.00
2015,02,16,14,26,13.00
2015,02,16,14,27,13.00
2015,02,16,14,28,13.00
2015,02,16,14,29,13.00
2015,02,16,14,30,13.00
2015,02,16,14,31,13.10
2015,02,16,14,32,13.10
2015,02,16,14,33,13.10
2015,02,16,14,34,13.10
2015,02,16,14,35,13.10
2015,02,16,14,36,13.00
2015,02,16,14,37,13.00
2015,02,16,14,38,13.00
2015,02,16,14,39,12.90
2015,02,16,14,40,12.90
2015,02,16,14,41,12.90
2015,02,16,14,42,12.90
2015,02,16,14,43,12.90
2015,02,16,14,44,12.90
2015,02,16,14,45,12.90
2015,02,16,14,46,12.90
2015,02,16,14,47,12.90
2015,02,16,14,48,12.90
2015,02,16,14,49,12.90
2015,02,16,14,50,12.90
2015,02,16,14,51,12.90
2015,02,16,14,52,12.90
2015,02,16,14,53,13.00
2015,02,16,14,54,13.00
2015,02,16,14,55,13.00
2015,02,16,14,56,12.90
2015,02,16,14,57,12.90
2015,02,16,14,58,12.80
2015,02,16,14,59,12.80
2015,02,16,15,00,12.70
2015,02,16,15,01,12.60
2015,02,16,15,02,12.60
2015,02,16,15,03,12.60
2015,02,16,15,04,12.60
2015,02,16,15,05,12.50
2015,02,16,15,06,12.50
2015,02,16,15,07,12.50
2015,02,16,15,08,12.50
2015,02,16,15,09,12.50
2015,02,16,15,10,12.50
2015,02,16,15,11,12.50
2015,02,16,15,12,12.50
2015,02,16,15,13,12.50
2015,02,16,15,14,12.40
2015,02,16,15,15,12.40
2015,02,16,15,16,12.40
2015,02,16,15,17,12.40
2015,02,16,15,18,12.40
2015,02,16,15,19,12.50
2015,02,16,15,20,12.40
2015,02,16,15,21,12.50
2015,02,16,15,22,12.50
2015,02,16,15,23,12.50
2015,02,16,15,24,12.50
2015,02,16,15,25,12.50
2015,02,16,15,26,12.50
2015,02,16,15,27,12.40
2015,02,16,15,28,12.40
2015,02,16,15,29,12.40
2015,02,16,15,30,12.40
2015,02,16,15,31,12.40
2015,02,16,15,32,12.40
2015,02,16,15,33,12.40
2015,02,16,15,34,12.50
2015,02,16,15,35,12.50
2015,02,16,15,36,12.50
2015,02,16,15,37,12.50
2015,02,16,15,38,12.50
2015,02,16,15,39,12.60
2015,02,16,15,40,12.60
2015,02,16,15,41,12.60
2015,02,16,15,42,12.60
2015,02,16,15,43,12.60
2015,02,16,15,44,12.60
2015,02,16,15,45,12.50
2015,02,16,15,46,12.50
2015,02,16,15,47,12.50
2015,02,16,15,48,12.40
2015,02,16,15,49,12.40
2015,02,16,15,50,12.40
2015,02,16,15,51,12.30
2015,02,16,15,52,12.30
2015,02,16,15,53,12.30
2015,02,16,15,54,12.30
2015,02,16,15,55,12.30
2015,02,16,15,56,12.20
2015,02,16,15,57,12.20
2015,02,16,15,58,12.20
2015,02,16,15,59,12.20
2015,02,16,16,00,12.20
2015,02,16,16,01,12.20
2015,02,16,16,02,12.20
2015,02,16,16,03,12.20
2015,02,16,16,04,12.20
2015,02,16,16,05,12.20
2015,02,16,16,06,12.20
2015,02,16,16,07,12.10
2015,02,16,16,08,12.10
2015,02,16,16,09,12.10
2015,02,16,16,10,12.10
2015,02,16,16,11,12.10
2015,02,16,16,12,12.10
2015,02,16,16,13,12.10
2015,02,16,16,14,12.10
2015,02,16,16,15,12.00
2015,02,16,16,16,12.00
2015,02,16,16,17,12.00
2015,02,16,16,18,12.00
2015,02,16,16,19,12.10
2015,02,16,16,20,12.10
2015,02,16,16,21,12.10
2015,02,16,16,22,12.10
2015,02,16,16,23,12.10
2015,02,16,16,24,12.10
2015,02,16,16,25,12.10
2015,02,16,16,26,12.20
2015,02,16,16,27,12.20
2015,02,16,16,28,12.20
2015,02,16,16,29,12.20
2015,02,16,16,30,12.30
2015,02,16,16,31,12.30
2015,02,16,16,32,12.30
2015,02,16,16,33,12.30
2015,02,16,16,34,12.40
2015,02,16,16,35,12.40
2015,02,16,16,36,12.40
2015,02,16,16,37,12.40
2015,02,16,16,38,12.40
2015,02,16,16,39,12.30
2015,02,16,16,40,12.30
2015,02,16,16,41,12.30
2015,02,16,16,42,12.20
2015,02,16,16,43,12.20
2015,02,16,16,44,12.10
2015,02,16,16,45,12.10
2015,02,16,16,46,12.00
2015,02,16,16,47,12.00
2015,02,16,16,48,11.90
2015,02,16,16,49,11.90
2015,02,16,16,50,11.80
2015,02,16,16,51,11.80
2015,02,16,16,52,11.70
2015,02,16,16,53,11.70
2015,02,16,16,54,11.70
2015,02,16,16,55,11.70
2015,02,16,16,56,11.70
2015,02,16,16,57,11.60
2015,02,16,16,58,11.60
2015,02,16,16,59,11.60
2015,02,16,17,00,11.60
2015,02,16,17,01,11.50
2015,02,16,17,02,11.50
2015,02,16,17,03,11.40
2015,02,16,17,04,11.40
2015,02,16,17,05,11.40
2015,02,16,17,06,11.30
2015,02,16,17,07,11.30
2015,02,16,17,08,11.30
2015,02,16,17,09,11.30
2015,02,16,17,10,11.20
2015,02,16,17,11,11.20
2015,02,16,17,12,11.20
2015,02,16,17,13,11.10
2015,02,16,17,14,11.10
2015,02,16,17,15,11.10
2015,02,16,17,16,11.00
2015,02,16,17,17,11.00
2015,02,16,17,18,10.90
2015,02,16,17,19,10.90
2015,02,16,17,20,10.90
2015,02,16,17,21,10.90
2015,02,16,17,22,10.80
2015,02,16,17,23,10.80
2015,02,16,17,24,10.80
2015,02,16,17,25,10.80
2015,02,16,17,26,10.80
2015,02,16,17,27,10.70
2015,02,16,17,28,10.70
2015,02,16,17,29,10.70
2015,02,16,17,30,10.70
2015,02,16,17,31,10.70
2015,02,16,17,32,10.60
2015,02,16,17,33,10.60
2015,02,16,17,34,10.60
2015,02,16,17,35,10.60
2015,02,16,17,36,10.50
2015,02,16,17,37,10.50
2015,02,16,17,38,10.50
2015,02,16,17,39,10.50
2015,02,16,17,40,10.40
2015,02,16,17,41,10.40
2015,02,16,17,42,10.40
2015,02,16,17,43,10.30
2015,02,16,17,44,10.20
2015,02,16,17,45,10.20
2015,02,16,17,46,10.10
2015,02,16,17,47,10.10
2015,02,16,17,48,10.00
2015,02,16,17,49,10.00
2015,02,16,17,50,10.00
2015,02,16,17,51,9.90